Tracking 27382 objects as of 4-Jun-2023
HD Live streaming from Space Station
objects crossing your sky now

STARLINK-5550

Track STARLINK-5550 now!
10-day predictions
STARLINK-5550 is classified as:


NORAD ID: 56361
Int'l Code: 2023-058AW
Perigee: 491.7 km
Apogee: 494.4 km
Inclination: 97.7 °
Period: 94.3 minutes
Semi major axis: 6864 km
RCS: Unknown
Launch date: April 27, 2023
Source: United States (US)
Launch site: AIR FORCE WESTERN TEST RANGE (AFWTR)
Your satellite tracking list
Your tracking list is empty




NASA's NSSDC Master Catalog

Two Line Element Set (TLE):
1 56361U 23058AW  23155.59253393 -.00252880  00000-0 -99844-2 0  9997
2 56361  97.6550 156.7074 0001975 107.9983 252.1470 15.26638159  6726
Source of the keplerian elements: AFSPC